sat.trackr.live / text

‹ back to catalog

YAOGAN-37

NORAD 55244 · 2023-006C

PAYLOAD ACTIVE UNKNOWN

§ Identity

Operator
Country
PRC
Launch date
2023-01-13
Launch site
JSC
Launch vehicle
Mass (kg)
RCS (m²)

External: N2YO · Heavens-Above · Gunter

§ Orbital elements

Epoch: 2026-09-15T17:13:33.959424Z

Period
94.87 min
Inclination
43.1983°
Eccentricity
0.0017003
Mean motion
15.17904795 rev/d
Perigee alt
500.5 km
Apogee alt
523.9 km
Semi-major
6,890.3 km
B*
2.1142e-4
RAAN
340.8136°
Arg perigee
226.7091°
Mean anomaly
133.2342°
Rev number
20,363

§ Raw data

YAOGAN-371 55244U 23006C   26258.71775416  .00004139  00000+0  21142-3 0  99912 55244  43.1983 340.8136 0017003 226.7091 133.2342 15.17904795203633

JSON: /api/v1/satellites/55244 · /tle

For live sub-satellite position, see the globe view (requires WebGL).

§ Visibility from observer

Set your observer location to see the next 7 days of passes ≥ 10°. The values pass through the URL so the page stays shareable.

No JS? Fill the form by hand. The geolocation button needs JavaScript.